Cloud_Cover
33 5 0 0 0 0 5 38 72 74 15 9 3 0 2 0 0 0 0 0 0 0 0 0 0 0 0 0 2 0 0 0 0
59 7 5 4 5 2 5 7 1 4 26 25 6 4 1 3 0 0 0 0 0 0 0 0 0 0 0 0 0 0 0 0 0
100 95 38 5 5 75 43 20 5 6 16 62 92 66 26 5 0 0 0 0 0 0 0 0 0 0 0 0 0 0 0 0 0
100 100 100 99 8 88 44 14 4 8 29 66 70 54 30 18 0 0 0 0 0 0 0 0 0 0 0 0 0 0 0 0 0
100 100 100 99 96 89 20 5 5 5 58 100 100 100 98 30 99 14 0 0 0 0 0 0 0 0 0 0 0 0 0 0 0
100 100 100 100 100 98 43 65 89 77 61 3 20 100 68 78 100 100 38 0 0 0 0 0 0 0 0 0 0 0 0 0 0
100 100 100 100 100 100 100 100 78 53 73 26 2 6 18 23 79 77 100 57 0 0 0 0 0 0 0 0 0 0 0 0 0
61 100 94 100 100 100 100 100 100 100 96 61 100 66 74 29 5 38 100 97 20 0 0 0 0 0 0 0 0 0 0 0 0
0 1 42 26 63 90 100 100 100 100 100 100 100 100 100 5 78 5 5 31 40 0 0 0 0 0 0 0 0 0 0 0 0
0 0 0 16 73 96 56 99 100 100 100 100 100 99 100 99 96 99 34 3 0 0 0 0 0 0 0 0 0 0 0 0 0
0 0 0 0 1 45 53 87 100 100 100 100 100 100 100 100 100 100 90 26 4 0 0 0 0 0 0 0 0 0 0 0 0
0 0 0 0 0 0 43 48 12 51 95 100 100 100 100 96 100 100 100 93 48 39 39 4 0 0 0 0 0 0 0 6 0
0 0 0 0 0 0 0 11 92 57 8 29 57 98 100 100 98 100 99 100 62 69 76 26 4 0 0 0 0 0 0 6 0
0 0 0 0 0 0 0 0 0 0 8 47 5 5 90 100 100 98 100 94 98 53 57 66 75 55 14 1 0 0 0 0 0
0 0 0 0 0 0 0 0 0 0 0 25 19 0 7 28 80 94 100 96 100 100 100 99 98 100 84 25 16 9 4 0 43
0 0 0 0 0 0 0 0 0 0 0 17 39 0 0 2 13 100 100 85 92 100 64 43 59 98 79 74 6 13 19 0 0
2 0 0 0 1 0 0 0 0 0 11 83 14 5 0 5 16 99 100 100 100 100 100 100 100 90 68 46 92 10 38 28 3
65 67 45 50 67 54 16 0 0 0 0 95 44 4 0 2 21 18 100 95 63 100 100 100 88 77 94 100 62 44 48 16 54
82 32 17 100 100 100 100 100 87 13 17 96 40 41 52 10 3 53 97 64 76 16 100 99 79 99 91 46 100 98 60 100 100
72 98 100 100 100 100 100 48 100 100 99 61 97 84 60 69 8 5 33 100 93 100 52 64 100 98 100 100 100 100 100 100 100